Location: ???????
(55.4362°N, 38.1183°E)
Time: 08:21:00
(UTC+00:00)

Cosmos 1184 Rocket - Visible Passes

Search period start: 28 October 2021 00:00
Search period end: 07 November 2021 00:00
Orbit: 396 x 409 km, 81.2° (Epoch: 27 October)

Date Brightness Start Highest point End Pass type
(mag) Time Alt. Az. Time Alt. Az. Time Alt. Az.
28 Oct 5.6 01:17:40 14° NNE 01:17:40 14° NNE 01:18:15 10° NNE visible
28 Oct 4.9 02:50:23 13° NNW 02:50:23 13° NNW 02:51:04 10° NNW visible
29 Oct 5.3 02:01:05 13° N 02:01:05 13° N 02:01:29 10° N visible
